Погода в Лужке

Россия / Костромская область     58°20′50″N   41°29′42″E
темп.,
°C
ветер,
м/с
пор.,
м/с
влажн.,
%
обл.,
%
осадки,
мм/ч
давл.,
гПа
погр.,
м
25 января, вт
вт2500:00−13ююз4139580 0.0 1029288
03:00−12ююз515936 0.0 1027321
06:00−12ююз41591100 0.0 1025323
09:00−12ююз5159075 0.0 1022322
12:00−9ююз5158542 0.0 1020422
15:00−8ююз5138792 0.0 1018488
18:00−10ююз41292100 0.0 1016372
21:00−10ююз41094100 0.2 1015324
26 января, ср
ср2600:00−11ю2695100 0.6 1014227
03:00−11ю1296100 1.2 101499
06:00−10ю1196100 0.7 101470
09:00−11ююв119798 0.9 101427
12:00−8с1191100 0.1 1015237
15:00−8ссв119577 0.2 101571
18:00−15ссз1110093 0.0 10179
21:00−17ссз11100100 0.1 10179
27 января, чт
чт2700:00−19з00100100 0.1 10169
03:00−20ююз11100100 0.1 10169
06:00−20ю11100100 0.1 10159
09:00−19ю12100100 0.1 101541
12:00−12ю2494100 0.0 1013183
15:00−11ю2695100 0.1 1012284
18:00−13ююв3996100 0.0 1011235
21:00−12ююв41294100 0.0 1010317
28 января, пт
пт2800:00−11ююв41293100 0.0 1009377
03:00−11ююв4139199 0.0 1008428
06:00−11ююв4129299 0.0 1007414
09:00−12ююв4139398 0.1 1007408
12:00−10ююв4119299 0.1 1006445
15:00−9ююв41092100 0.3 1006499
18:00−9ююв4119391 0.1 1006440
21:00−9юв41194100 0.2 1006432
29 января, сб
сб2900:00−9юв31094100 0.2 1005369
03:00−9юв3995100 0.3 1005310
06:00−9юв3795100 0.2 1005281
09:00−9вюв2696100 0.4 1005249
12:00−8юв2392100 0.3 1004298
15:00−7юв119498 0.6 1004229
18:00−9зюз0098100 0.3 100411
21:00−11зюз119875 0.6 100311